Seýdi

Turkmenistan     39˚29′04″N   62˚54′59″E
temp.,
°C
wind,
m/s
gust,
m/s
humid.,
%
clouds,
%
prec.,
mm/h
press.,
hPa
HPBL,
m
2 december, wed
wed223:00+1˚n235210 0.0 102722
02:00nnw225393 0.0 102722
05:00n235768 0.0 102722
08:00n335853 0.0 102922
11:00+6˚n223945 0.0 1029317
14:00+10˚nw333638 0.0 1027530
17:00+8˚nnw344119 0.0 102628
20:00+3˚nnw45520 0.0 102843
3 december, thu
thu323:00+1˚n34510 0.0 102728
02:00n44540 0.0 102832
05:00−1˚n445217 0.0 102839
08:00−2˚n3454100 0.0 102925
11:00+3˚n3435100 0.0 1030254
14:00+7˚nnw4524100 0.0 1028438
17:00+5˚nnw5625100 0.0 1028212
20:00+3˚nnw4534100 0.0 102985
4 december, fri
fri423:00−1˚nnw455096 0.0 102961
02:00−2˚n455676 0.0 102956
05:00−4˚n456038 0.0 103048
08:00−5˚n34630 0.0 103127
11:00n33410 0.0 1032323
14:00+5˚nnw33240 0.0 1031569
17:00+3˚n34250 0.0 103124
20:00−1˚nne45330 0.0 103238
5 december, sat
sat523:00−4˚nne45510 0.0 103237
02:00−6˚nne34550 0.0 103121
05:00−6˚ne44500 0.0 103024
08:00−7˚ne45562 0.0 103125
11:00ne44314 0.0 1031302
14:00+5˚nne331920 0.0 1028514
17:00+2˚nne442329 0.0 102825
20:00−2˚nne45461 0.0 102934
6 december, sun
sun623:00−4˚nne44610 0.0 102922
02:00−5˚ne45470 0.0 102931
05:00−5˚ne55683 0.0 102966
08:00−6˚ne577826 0.0 102997
11:00+1˚ne674022 0.0 1028265
14:00+7˚ne562156 0.0 1026455
17:00+5˚nne692878 0.0 1025183
20:00+1˚ne71243100 0.0 1025212